Weather History for La Porte, IN

Change the Weather History Date:

Wednesday, December 4, 2013

  Actual Average (KVPZ) Record (KVPZ)
Temperature  
Mean Temperature 50 °F 32 °F  
Max Temperature 57 °F 39 °F 64 °F (2012)
Min Temperature 44 °F 25 °F 9 °F (2005)
Degree Days  
Heating Degree Days 14 33  
Month to date heating degree days 130  
Since 1 July heating degree days 1388  
Cooling Degree Days 0 0  
Month to date cooling degree days 0  
Year to date cooling degree days 713  
Moisture  
Dew Point 49 °F    
Average Humidity 96    
Maximum Humidity 100    
Minimum Humidity 84    
Precipitation  
Precipitation 0.00 in 0.09 in 0.56 in (2012)
Month to date precipitation 0.35  
Year to date precipitation 35.68  
Sea Level Pressure  
Sea Level Pressure 29.68 in    
Wind  
Wind Speed 7 mph (SSE)    
Max Wind Speed 18 mph    
Max Gust Speed 29 mph    
Visibility 4 miles    
Events Fog , Rain    
T = Trace of Precipitation, MM = Missing Value Source: NWS Daily Summary

Daily Weather History Graph

Daily Weather History Graph

Search for Another Location

Airport:

Trip Planner

Search our weather history database for the weather conditions in past years. The results will help you decide how hot, cold, wet, or windy it might be!

Date:

Astronomy

Dec. 04, 2013 Rise Set
Actual Time 6:57 AM CST 4:17 PM CST
Civil Twilight 6:26 AM CST 4:48 PM CST
Nautical Twilight 5:51 AM CST 5:22 PM CST
Astronomical Twilight 5:18 AM CST 5:56 PM CST
Moon 8:24 AM CST (12/4) 6:27 PM CST (12/4)
Length of Visible Light 10h 21m
Length of Day
9h 19m
Waxing Crescent, 4% of the Moon is Illuminated
Dec 4
Waxing Crescent
Dec 9
First Quarter
Dec 17
Full
Dec 25
Last Quarter
Jan 1
New

Hourly Weather History & Observations

Time (CST) Temp. Windchill Dew Point Humidity Pressure Visibility Wind Dir Wind Speed Gust Speed Precip Events Conditions
12:15 AM 45.5 °F 44.2 °F 45.5 °F 100% 29.76 in 2.0 mi SSE 3.5 mph - N/A   Overcast
12:35 AM 45.7 °F 44.4 °F 45.7 °F 100% 29.77 in 2.5 mi SSE 3.5 mph - N/A   Overcast
12:55 AM 45.5 °F 44.2 °F 45.5 °F 100% 29.77 in 2.5 mi SE 3.5 mph - N/A   Overcast
1:15 AM 45.3 °F - 45.3 °F 100% 29.77 in 2.5 mi Calm Calm - N/A   Overcast
1:35 AM 44.8 °F 43.3 °F 44.8 °F 100% 29.77 in 2.5 mi SE 3.5 mph - N/A   Overcast
1:55 AM 45.0 °F 43.5 °F 45.0 °F 100% 29.78 in 2.5 mi SE 3.5 mph - N/A   Mostly Cloudy
2:15 AM 45.7 °F 44.4 °F 45.7 °F 100% 29.79 in 3.0 mi South 3.5 mph - N/A   Overcast
2:35 AM 45.7 °F 44.4 °F 45.0 °F 97% 29.78 in 3.0 mi SE 3.5 mph - N/A   Overcast
2:55 AM 45.7 °F 43.4 °F 44.6 °F 96% 29.77 in 3.0 mi SE 4.6 mph - N/A   Overcast
3:15 AM 45.7 °F 43.4 °F 44.2 °F 95% 29.77 in 4.0 mi SSE 4.6 mph - N/A   Overcast
3:35 AM 45.5 °F 42.5 °F 43.7 °F 93% 29.77 in 4.0 mi SSE 5.8 mph - N/A   Overcast
3:55 AM 45.5 °F 43.2 °F 43.7 °F 93% 29.77 in 4.0 mi SSE 4.6 mph - N/A   Overcast
4:15 AM 45.1 °F 43.7 °F 43.7 °F 95% 29.77 in 3.0 mi SSE 3.5 mph - N/A   Overcast
4:35 AM 45.0 °F 43.5 °F 43.7 °F 95% 29.78 in 3.0 mi SE 3.5 mph - N/A   Overcast
4:55 AM 45.1 °F 43.7 °F 43.9 °F 95% 29.77 in 3.0 mi SE 3.5 mph - N/A   Overcast
5:15 AM 45.0 °F - 43.7 °F 95% 29.78 in 3.0 mi Calm Calm - N/A   Overcast
5:35 AM 44.6 °F 42.2 °F 43.5 °F 96% 29.78 in 2.5 mi ESE 4.6 mph - N/A   Overcast
5:55 AM 45.1 °F 41.4 °F 44.4 °F 97% 29.77 in 2.5 mi ESE 6.9 mph - N/A   Overcast
6:15 AM 45.5 °F 43.2 °F 45.3 °F 99% 29.78 in 2.5 mi SE 4.6 mph - N/A   Overcast
6:35 AM 45.5 °F 44.2 °F 45.5 °F 100% 29.78 in 2.0 mi SE 3.5 mph - N/A   Overcast
6:55 AM 45.7 °F 42.7 °F 45.7 °F 100% 29.78 in 1.2 mi SSE 5.8 mph - N/A   Overcast
7:15 AM 45.7 °F 42.7 °F 45.7 °F 100% 29.78 in 0.2 mi SSE 5.8 mph - N/A Fog Fog
7:35 AM 45.5 °F 41.3 °F 45.5 °F 100% 29.77 in 0.2 mi SSE 8.1 mph - N/A Fog Fog
7:55 AM 45.5 °F 41.3 °F 45.5 °F 100% 29.76 in 0.2 mi SSE 8.1 mph - N/A Fog Fog
8:15 AM 45.7 °F 41.0 °F 45.7 °F 100% 29.76 in 0.2 mi SSE 9.2 mph - N/A Fog Fog
8:35 AM 45.9 °F 41.7 °F 45.9 °F 100% 29.76 in 0.8 mi SSE 8.1 mph - N/A   Overcast
8:55 AM 46.4 °F 41.5 °F 46.4 °F 100% 29.75 in 0.8 mi SSE 10.4 mph 16.1 mph N/A   Overcast
9:15 AM 46.8 °F - 46.8 °F 100% 29.74 in 0.5 mi SSE 10.4 mph - N/A Fog Fog
9:35 AM 47.3 °F - 47.3 °F 100% 29.75 in 1.0 mi SSE 8.1 mph - N/A   Overcast
9:55 AM 47.5 °F - 47.5 °F 100% 29.75 in 1.5 mi SSE 9.2 mph - N/A   Overcast
10:15 AM 48.2 °F - 48.2 °F 100% 29.74 in 1.8 mi SSE 9.2 mph - N/A   Overcast
10:35 AM 48.9 °F - 48.9 °F 100% 29.72 in 2.5 mi SSE 10.4 mph 17.3 mph N/A   Overcast
10:55 AM 49.5 °F - 49.5 °F 100% 29.70 in 3.0 mi SSE 11.5 mph 17.3 mph N/A   Overcast
11:15 AM 50.4 °F - 50.4 °F 100% 29.69 in 3.0 mi SSE 9.2 mph - N/A   Overcast
11:35 AM 51.3 °F - 51.1 °F 99% 29.68 in 4.0 mi SSE 10.4 mph - N/A   Overcast
11:55 AM 51.8 °F - 49.6 °F 92% 29.67 in 4.0 mi SSE 10.4 mph - N/A   Overcast
12:15 PM 52.3 °F - 49.6 °F 91% 29.66 in 5.0 mi SSE 9.2 mph 16.1 mph N/A   Overcast
12:35 PM 52.7 °F - 49.5 °F 89% 29.65 in 5.0 mi SE 9.2 mph - N/A   Overcast
12:55 PM 52.7 °F - 49.6 °F 89% 29.63 in 5.0 mi SSE 8.1 mph 16.1 mph N/A   Overcast
1:15 PM 52.7 °F - 50.2 °F 91% 29.62 in 3.0 mi SSE 10.4 mph - N/A Rain Light Rain
1:35 PM 52.2 °F - 50.4 °F 94% 29.61 in 3.0 mi SE 8.1 mph - N/A   Overcast
1:55 PM 52.3 °F - 50.9 °F 95% 29.60 in 3.0 mi SSE 11.5 mph - N/A   Overcast
2:15 PM 52.5 °F - 51.1 °F 95% 29.60 in 2.5 mi SSE 12.7 mph 18.4 mph N/A   Overcast
2:35 PM 52.7 °F - 51.8 °F 97% 29.60 in 2.0 mi SSE 12.7 mph 17.3 mph N/A   Overcast
2:55 PM 52.7 °F - 52.7 °F 100% 29.59 in 1.2 mi SSE 10.4 mph 16.1 mph N/A   Overcast
3:15 PM 52.9 °F - 52.9 °F 100% 29.58 in 1.8 mi SSE 10.4 mph 18.4 mph N/A   Overcast
3:35 PM 53.1 °F - 53.1 °F 100% 29.58 in 1.8 mi SSE 10.4 mph 17.3 mph N/A   Overcast
3:55 PM 53.6 °F - 53.6 °F 100% 29.58 in 2.5 mi South 10.4 mph - N/A   Overcast
4:15 PM 54.0 °F - 54.0 °F 100% 29.58 in 3.0 mi South 9.2 mph 17.3 mph N/A   Overcast
4:35 PM 54.0 °F - 53.6 °F 99% 29.57 in 4.0 mi SSE 10.4 mph - N/A   Overcast
4:55 PM 54.3 °F - 53.1 °F 95% 29.59 in 5.0 mi South 9.2 mph - N/A   Overcast
5:15 PM 54.7 °F - 53.2 °F 95% 29.60 in 5.0 mi South 10.4 mph 16.1 mph N/A   Overcast
5:35 PM 54.7 °F - 53.2 °F 95% 29.59 in 5.0 mi South 10.4 mph - N/A   Overcast
5:55 PM 55.4 °F - 53.6 °F 94% 29.59 in 5.0 mi South 9.2 mph - N/A   Overcast
6:15 PM 55.6 °F - 53.8 °F 94% 29.59 in 5.0 mi South 9.2 mph 17.3 mph N/A   Overcast
6:35 PM 55.8 °F - 53.8 °F 93% 29.59 in 5.0 mi South 9.2 mph - N/A   Overcast
6:55 PM 56.3 °F - 54.5 °F 94% 29.59 in 5.0 mi SSW 12.7 mph 16.1 mph N/A   Overcast
7:15 PM 57.2 °F - 54.5 °F 91% 29.60 in 7.0 mi SSW 12.7 mph 19.6 mph N/A   Overcast
7:35 PM 57.2 °F - 54.3 °F 90% 29.59 in 7.0 mi SW 13.8 mph - N/A   Overcast
7:55 PM 56.5 °F - 54.0 °F 91% 29.60 in 5.0 mi SW 10.4 mph - N/A   Mostly Cloudy
8:15 PM 56.3 °F - 54.5 °F 94% 29.60 in 5.0 mi SSW 10.4 mph - N/A   Overcast
8:35 PM 56.3 °F - 54.1 °F 92% 29.61 in 5.0 mi SSW 9.2 mph - N/A   Overcast
8:55 PM 56.3 °F - 54.1 °F 92% 29.61 in 5.0 mi SSW 10.4 mph - N/A   Overcast
9:15 PM 55.9 °F - 54.3 °F 94% 29.60 in 5.0 mi SW 13.8 mph 18.4 mph N/A   Light Drizzle
9:35 PM 56.3 °F - 54.0 °F 92% 29.61 in 5.0 mi SW 11.5 mph - N/A   Light Drizzle
9:55 PM 56.3 °F - 53.6 °F 91% 29.61 in 5.0 mi SW 12.7 mph - N/A   Overcast
10:15 PM 55.8 °F - 52.7 °F 89% 29.61 in 7.0 mi WSW 10.4 mph - N/A   Overcast
10:35 PM 55.6 °F - 52.2 °F 88% 29.62 in 7.0 mi WSW 15.0 mph 19.6 mph N/A   Mostly Cloudy
10:55 PM 55.2 °F - 50.9 °F 85% 29.62 in 7.0 mi WSW 15.0 mph 19.6 mph N/A   Mostly Cloudy
11:15 PM 54.3 °F - 49.6 °F 84% 29.62 in 7.0 mi WSW 11.5 mph 24.2 mph N/A   Mostly Cloudy
11:35 PM 53.8 °F - 49.5 °F 85% 29.65 in 7.0 mi WSW 18.4 mph 26.5 mph N/A   Overcast
11:55 PM 51.1 °F - 46.8 °F 85% 29.67 in 7.0 mi West 18.4 mph 28.8 mph N/A   Overcast